User: anonymous   Login
Location: Newark
(15.4608°S, 41.1635°W)
Time: 21:48:07
(UTC+00:00)
Language:

XW-2B - Orbit

View from above orbital plane
View from above orbital plane
View from above satellite
View from above satellite

Ground track
Ground track

The orbit data is extracted from the following two-line orbital elements,

1 40911U 15049N   20052.48495894  .00000852  00000-0  47621-4 0  9993
2 40911  97.4757  55.9600 0015605  61.1276  90.1598 15.16079367244446
Epoch (UTC): 21 February 2020 11:38:20
Eccentricity: 0.0015605
inclination: 97.4757°
perigee height: 507 km
apogee height: 528 km
right ascension of ascending node: 55.9600°
argument of perigee: 61.1276°
revolutions per day: 15.16079367
mean anomaly at epoch: 90.1598°
orbit number at epoch: 24444

The dashed part of the orbit path shows where the satellite is in the earth's shadow,  

DLR